INTELSAT 32E (IS-32E) (41945 NORAD) Tracking and Keplerian Element Data

This shows tracking and keplerian element data for the satellite.

Feedback or suggestion? Click here.




ElementValue
Catalog41945
NameINTELSAT 32E (IS-32E)
Epoch Orbit801
Epoch Day109.86348573
Epoch Year2019
RAAN219.2926
Inclination0.0145
Eccentricity4.58E-05
Argument of Perigee206.4716
Mean Anonmoly49.5721
Mean Motion1.00270682
Decay Rate-2.88E-06
L11 41945U 17007B 19109.86348573 -.00000288 00000-0 00000-0 0 9991
L22 41945 0.0145 219.2926 0000458 206.4716 49.5721 1.00270682 8012

Live tracking and technical data element details for INTELSAT 32E (IS-32E) (NORAD 41945). INTELSAT 32E (IS-32E) can be tracked NOW for your location showing map with azimuth and elevation plus other details from your city location.

Track the satellite on the map from your city or location and see movement details for azimuth, elevation, latitude, longitude, range, height, and movement on the map or in text.







IsCatalogInMostPopularTable: catalog: 41945, numindb: 243
Update: records affected: 1



GetName: 41945 INTELSAT 32E (IS-32E)

Hit Count: updated at: Sat, 20 Apr 2019 20:47:23 GMT